• In Portugal
  • List of Countries
  • For 7 days
  • Water Temperature
  • Satellite Maps
  • Weather Map
  • Weather Widgets
  • user-avatar
    Login

    Hourly Weather Aksaray

    Today, 16 December, Saturday

    Time Temperature Precipitation Wind Pressure Humidity
    00:00 +6°C° 0 mm 2 mps 679 mmHg 58%
    01:00 +6°C° 0 mm 2 mps 679 mmHg 62%
    02:00 +6°C° 0 mm 2 mps 679 mmHg 66%
    03:00 +6°C° 0 mm 2 mps 679 mmHg 68%
    04:00 +5°C° 0 mm 2 mps 679 mmHg 70%
    05:00 +5°C° 0 mm 2 mps 679 mmHg 73%
    06:00 +6°C° 0 mm 2 mps 679 mmHg 72%
    07:00 +6°C° 0 mm 2 mps 679 mmHg 72%
    08:00 +6°C° 0 mm 2 mps 679 mmHg 72%
    09:00 +8°C° 0 mm 3 mps 679 mmHg 65%
    10:00 +10°C° 0 mm 3 mps 680 mmHg 58%
    11:00 +12°C° 0 mm 4 mps 680 mmHg 51%
    12:00 +13°C° 0 mm 4 mps 680 mmHg 49%
    13:00 +13°C° 0 mm 4 mps 680 mmHg 48%
    14:00 +14°C° 0 mm 4 mps 679 mmHg 47%
    15:00 +12°C° 0 mm 4 mps 679 mmHg 54%
    16:00 +11°C° 0 mm 3 mps 679 mmHg 60%
    17:00 +10°C° 0 mm 2 mps 679 mmHg 67%
    18:00 +9°C° 0 mm 3 mps 679 mmHg 69%
    19:00 +9°C° 0 mm 3 mps 679 mmHg 71%
    20:00 +8°C° 0 mm 3 mps 679 mmHg 73%
    21:00 +8°C° 0 mm 3 mps 679 mmHg 74%
    22:00 +8°C° 0 mm 3 mps 679 mmHg 75%
    23:00 +7°C° 0 mm 3 mps 679 mmHg 76%

    Tomorrow, 17 December, Sunday

    Time Temperature Precipitation Wind Pressure Humidity
    00:00 +7°C° 0 mm 3 mps 679 mmHg 76%
    01:00 +7°C° 0 mm 3 mps 679 mmHg 77%
    02:00 +7°C° 0 mm 2 mps 679 mmHg 77%
    03:00 +7°C° 0 mm 3 mps 679 mmHg 77%
    04:00 +7°C° 0 mm 3 mps 679 mmHg 77%
    05:00 +7°C° 0 mm 3 mps 679 mmHg 77%
    06:00 +7°C° 0 mm 3 mps 679 mmHg 77%
    07:00 +8°C° 0 mm 3 mps 679 mmHg 76%
    08:00 +8°C° 0 mm 3 mps 679 mmHg 76%
    09:00 +9°C° 0 mm 3 mps 679 mmHg 68%
    10:00 +11°C° 0 mm 4 mps 679 mmHg 60%
    11:00 +13°C° 0 mm 5 mps 679 mmHg 53%
    12:00 +14°C° 0 mm 5 mps 679 mmHg 51%
    13:00 +14°C° 0 mm 5 mps 679 mmHg 50%
    14:00 +15°C° 0 mm 6 mps 678 mmHg 49%
    15:00 +14°C° 0 mm 5 mps 678 mmHg 54%
    16:00 +12°C° 0 mm 4 mps 678 mmHg 60%
    17:00 +11°C° 0 mm 4 mps 678 mmHg 66%
    18:00 +11°C° 0 mm 4 mps 678 mmHg 69%
    19:00 +10°C° 0 mm 4 mps 678 mmHg 72%
    20:00 +8°C° 0 mm 4 mps 679 mmHg 75%
    21:00 +8°C° 0 mm 4 mps 679 mmHg 77%
    22:00 +8°C° 0 mm 4 mps 679 mmHg 78%
    23:00 +7°C° 0 mm 4 mps 679 mmHg 79%

    Day after tomorrow, 18 December, Monday

    Time Temperature Precipitation Wind Pressure Humidity
    00:00 +7°C° 0 mm 4 mps 679 mmHg 79%
    01:00 +7°C° 0 mm 4 mps 679 mmHg 79%
    02:00 +7°C° 0 mm 4 mps 679 mmHg 78%
    03:00 +6°C° 0 mm 4 mps 679 mmHg 78%
    04:00 +6°C° 0 mm 4 mps 678 mmHg 77%
    05:00 +6°C° 0 mm 4 mps 678 mmHg 77%
    06:00 +8°C° 0 mm 3 mps 678 mmHg 75%
    07:00 +8°C° 0 mm 3 mps 678 mmHg 73%
    08:00 +8°C° 0 mm 3 mps 679 mmHg 71%
    09:00 +10°C° 0 mm 4 mps 678 mmHg 64%
    10:00 +10°C° 0 mm 5 mps 678 mmHg 57%
    11:00 +13°C° 0 mm 6 mps 678 mmHg 51%
    12:00 +13°C° 0 mm 6 mps 678 mmHg 49%
    13:00 +14°C° 0 mm 7 mps 678 mmHg 47%
    14:00 +13°C° 0 mm 8 mps 677 mmHg 45%
    15:00 +12°C° 0 mm 7 mps 677 mmHg 49%
    16:00 +11°C° 0 mm 7 mps 677 mmHg 52%
    17:00 +10°C° 0 mm 6 mps 677 mmHg 56%
    18:00 +10°C° 0 mm 6 mps 677 mmHg 58%
    19:00 +9°C° 0 mm 5 mps 677 mmHg 61%
    20:00 +9°C° 0 mm 5 mps 677 mmHg 63%
    21:00 +8°C° 0.1 mm 5 mps 677 mmHg 64%
    22:00 +8°C° 0.1 mm 5 mps 677 mmHg 64%
    23:00 +8°C° 0.1 mm 5 mps 677 mmHg 65%

    19 December, Tuesday

    Time Temperature Precipitation Wind Pressure Humidity
    00:00 +8°C° 0.2 mm 5 mps 677 mmHg 66%
    01:00 +8°C° 0.2 mm 5 mps 677 mmHg 67%
    02:00 +7°C° 0.2 mm 4 mps 677 mmHg 68%
    03:00 +7°C° 0.4 mm 4 mps 677 mmHg 70%
    04:00 +7°C° 0.4 mm 4 mps 677 mmHg 72%
    05:00 +7°C° 0.4 mm 4 mps 677 mmHg 74%
    06:00 +7°C° 0.5 mm 4 mps 678 mmHg 75%
    07:00 +7°C° 0.5 mm 4 mps 678 mmHg 77%
    08:00 +7°C° 0.5 mm 3 mps 678 mmHg 78%
    09:00 +7°C° 0.5 mm 3 mps 679 mmHg 76%
    10:00 +7°C° 0.5 mm 3 mps 679 mmHg 75%
    11:00 +7°C° 0.5 mm 3 mps 679 mmHg 73%
    12:00 +7°C° 0.4 mm 3 mps 679 mmHg 73%
    13:00 +7°C° 0.4 mm 3 mps 679 mmHg 73%
    14:00 +7°C° 0.4 mm 3 mps 678 mmHg 74%
    15:00 +5°C° 0.3 mm 3 mps 679 mmHg 75%
    16:00 +5°C° 0.3 mm 3 mps 679 mmHg 77%
    17:00 +6°C° 0.3 mm 2 mps 679 mmHg 79%
    18:00 +6°C° 0.2 mm 2 mps 679 mmHg 80%
    19:00 +6°C° 0.2 mm 2 mps 679 mmHg 81%
    20:00 +6°C° 0.2 mm 2 mps 680 mmHg 81%
    21:00 +5°C° 0.1 mm 2 mps 680 mmHg 82%
    22:00 +6°C° 0.1 mm 1 mps 680 mmHg 83%
    23:00 +6°C° 0.1 mm 1 mps 680 mmHg 83%

    20 December, Wednesday

    Time Temperature Precipitation Wind Pressure Humidity
    00:00 +6°C° 0 mm 1 mps 680 mmHg 84%
    01:00 +6°C° 0 mm 1 mps 679 mmHg 84%
    02:00 +6°C° 0 mm 1 mps 679 mmHg 84%
    03:00 +6°C° 0 mm 1 mps 679 mmHg 85%
    04:00 +6°C° 0 mm 1 mps 679 mmHg 86%
    05:00 +5°C° 0 mm 1 mps 679 mmHg 87%
    06:00 +5°C° 0 mm 1 mps 679 mmHg 86%
    07:00 +6°C° 0 mm 1 mps 679 mmHg 86%
    08:00 +6°C° 0 mm 1 mps 679 mmHg 85%
    09:00 +7°C° 0 mm 1 mps 680 mmHg 80%
    10:00 +7°C° 0 mm 1 mps 680 mmHg 75%
    11:00 +7°C° 0 mm 2 mps 680 mmHg 70%
    12:00 +8°C° 0 mm 2 mps 679 mmHg 69%
    13:00 +8°C° 0 mm 3 mps 679 mmHg 67%
    14:00 +8°C° 0 mm 3 mps 679 mmHg 66%
    15:00 +7°C° 0 mm 3 mps 679 mmHg 70%
    16:00 +5°C° 0 mm 3 mps 679 mmHg 74%
    17:00 +4°C° 0 mm 3 mps 679 mmHg 78%
    18:00 +4°C° 0 mm 3 mps 679 mmHg 79%
    19:00 +4°C° 0 mm 3 mps 679 mmHg 80%
    20:00 +4°C° 0 mm 3 mps 680 mmHg 80%
    21:00 +4°C° 0.1 mm 2 mps 680 mmHg 81%
    22:00 +4°C° 0.1 mm 2 mps 680 mmHg 81%
    23:00 +4°C° 0.1 mm 2 mps 680 mmHg 82%

    21 December, Thursday

    Time Temperature Precipitation Wind Pressure Humidity
    00:00 +4°C° 0.3 mm 2 mps 680 mmHg 83%
    01:00 +2°C° 0.3 mm 3 mps 679 mmHg 85%
    02:00 +2°C° 0.3 mm 3 mps 679 mmHg 86%
    03:00 +3°C° 0.1 mm 2 mps 679 mmHg 87%
    04:00 +3°C° 0.1 mm 2 mps 679 mmHg 88%
    05:00 +2°C° 0.1 mm 2 mps 679 mmHg 89%
    06:00 +2°C° 0.1 mm 2 mps 679 mmHg 89%
    07:00 +2°C° 0.1 mm 2 mps 679 mmHg 88%
    08:00 +2°C° 0.1 mm 2 mps 679 mmHg 88%
    09:00 +3°C° 0.1 mm 2 mps 679 mmHg 84%
    10:00 +3°C° 0.1 mm 2 mps 679 mmHg 81%
    11:00 +4°C° 0.1 mm 2 mps 678 mmHg 78%
    12:00 +4°C° 0.1 mm 2 mps 678 mmHg 76%
    13:00 +4°C° 0.1 mm 2 mps 677 mmHg 75%
    14:00 +4°C° 0.1 mm 2 mps 677 mmHg 73%
    15:00 +3°C° 0.1 mm 3 mps 676 mmHg 77%
    16:00 +2°C° 0.1 mm 3 mps 676 mmHg 80%
    17:00 +2°C° 0.1 mm 3 mps 676 mmHg 84%
    18:00 0°C° 0.1 mm 4 mps 676 mmHg 85%
    19:00 0°C° 0.1 mm 4 mps 676 mmHg 86%
    20:00 -1°C° 0.1 mm 5 mps 676 mmHg 87%
    21:00 -1°C° 0.4 mm 5 mps 676 mmHg 87%
    22:00 -3°C° 0.4 mm 6 mps 676 mmHg 88%
    23:00 -3°C° 0.4 mm 6 mps 676 mmHg 88%
    Show more